TimeCST,TemperatureF,Dew PointF,Humidity,Sea Level PressureIn,VisibilityMPH,Wind Direction,Wind SpeedMPH,Gust SpeedMPH,PrecipitationIn,Events,Conditions,WindDirDegrees,DateUTC
12:15 AM,26.6,24.8,93,30.41,9.0,Calm,Calm,-,N/A,,Clear,0,2013-01-05 06:15:00
12:35 AM,26.6,24.8,93,30.40,8.0,Calm,Calm,-,N/A,,Clear,0,2013-01-05 06:35:00
12:55 AM,26.6,24.8,93,30.40,9.0,Calm,Calm,-,N/A,,Unknown,0,2013-01-05 06:55:00
1:15 AM,26.6,24.8,93,30.39,9.0,Calm,Calm,-,N/A,,Clear,0,2013-01-05 07:15:00
1:35 AM,26.6,24.8,93,30.39,9.0,Calm,Calm,-,N/A,,Clear,0,2013-01-05 07:35:00
1:55 AM,26.6,24.8,93,30.40,9.0,Calm,Calm,-,N/A,,Clear,0,2013-01-05 07:55:00
2:15 AM,26.6,24.8,93,30.40,8.0,Calm,Calm,-,N/A,,Clear,0,2013-01-05 08:15:00
2:35 AM,26.6,24.8,93,30.39,8.0,Calm,Calm,-,N/A,,Clear,0,2013-01-05 08:35:00
2:55 AM,26.6,24.8,93,30.39,7.0,Calm,Calm,-,N/A,,Clear,0,2013-01-05 08:55:00
3:35 AM,26.6,24.8,93,30.37,8.0,Calm,Calm,-,N/A,,Clear,0,2013-01-05 09:35:00
3:55 AM,26.6,24.8,93,30.37,7.0,Calm,Calm,-,N/A,,Clear,0,2013-01-05 09:55:00
4:15 AM,26.6,24.8,93,30.38,9.0,Calm,Calm,-,N/A,,Clear,0,2013-01-05 10:15:00
4:35 AM,26.6,24.8,93,30.38,9.0,Calm,Calm,-,N/A,,Clear,0,2013-01-05 10:35:00
4:55 AM,26.6,24.8,93,30.38,9.0,Calm,Calm,-,N/A,,Clear,0,2013-01-05 10:55:00
5:15 AM,26.6,24.8,93,30.38,8.0,Calm,Calm,-,N/A,,Clear,0,2013-01-05 11:15:00
5:35 AM,26.6,24.8,93,30.39,8.0,Calm,Calm,-,N/A,,Clear,0,2013-01-05 11:35:00
5:55 AM,26.6,24.8,93,30.38,10.0,Calm,Calm,-,N/A,,Clear,0,2013-01-05 11:55:00
6:35 AM,26.6,24.8,93,30.40,9.0,Calm,Calm,-,N/A,,Clear,0,2013-01-05 12:35:00
6:55 AM,28.4,26.6,93,30.41,10.0,Calm,Calm,-,N/A,,Clear,0,2013-01-05 12:55:00
7:15 AM,28.4,26.6,93,30.43,7.0,Calm,Calm,-,N/A,,Scattered Clouds,0,2013-01-05 13:15:00
7:35 AM,28.4,26.6,93,30.43,8.0,Calm,Calm,-,N/A,,Mostly Cloudy,0,2013-01-05 13:35:00
7:55 AM,30.2,28.4,93,30.42,8.0,Calm,Calm,-,N/A,,Mostly Cloudy,0,2013-01-05 13:55:00
8:15 AM,32.0,28.4,87,30.42,8.0,Calm,Calm,-,N/A,,Partly Cloudy,0,2013-01-05 14:15:00
8:35 AM,32.0,28.4,87,30.42,7.0,Calm,Calm,-,N/A,Rain,Light Rain,0,2013-01-05 14:35:00
8:55 AM,35.6,28.4,75,30.43,7.0,Calm,Calm,-,N/A,,Partly Cloudy,0,2013-01-05 14:55:00
9:15 AM,37.4,28.4,70,30.42,9.0,Calm,Calm,-,N/A,,Scattered Clouds,0,2013-01-05 15:15:00
9:35 AM,37.4,26.6,65,30.42,9.0,South,3.5,-,N/A,,Mostly Cloudy,190,2013-01-05 15:35:00
9:55 AM,39.2,26.6,61,30.43,8.0,South,3.5,-,N/A,,Overcast,180,2013-01-05 15:55:00
10:15 AM,39.2,26.6,61,30.42,9.0,South,5.8,-,N/A,,Mostly Cloudy,190,2013-01-05 16:15:00
10:35 AM,39.2,26.6,61,30.40,9.0,SSW,4.6,-,N/A,,Scattered Clouds,200,2013-01-05 16:35:00
10:55 AM,41.0,26.6,57,30.40,9.0,South,4.6,-,N/A,,Scattered Clouds,190,2013-01-05 16:55:00
11:15 AM,41.0,28.4,61,30.35,9.0,SE,4.6,-,N/A,,Mostly Cloudy,140,2013-01-05 17:15:00
11:35 AM,41.0,28.4,61,30.36,9.0,Calm,Calm,-,N/A,,Mostly Cloudy,0,2013-01-05 17:35:00
11:55 AM,41.0,28.4,61,30.34,9.0,Calm,Calm,-,N/A,,Overcast,0,2013-01-05 17:55:00
12:15 PM,41.0,30.2,65,30.34,8.0,Calm,Calm,-,N/A,,Overcast,0,2013-01-05 18:15:00
12:35 PM,41.0,30.2,65,30.32,8.0,WSW,3.5,-,N/A,,Overcast,250,2013-01-05 18:35:00
1:15 PM,42.8,30.2,61,30.31,9.0,Calm,Calm,-,N/A,,Overcast,0,2013-01-05 19:15:00
1:35 PM,42.8,32.0,66,30.31,9.0,SW,3.5,-,N/A,,Overcast,230,2013-01-05 19:35:00
1:55 PM,42.8,32.0,66,30.30,9.0,SSW,4.6,-,N/A,,Overcast,210,2013-01-05 19:55:00
2:15 PM,42.8,32.0,66,30.30,9.0,Calm,Calm,-,N/A,,Overcast,0,2013-01-05 20:15:00
2:35 PM,42.8,32.0,66,30.31,9.0,SW,6.9,-,N/A,,Overcast,230,2013-01-05 20:35:00
2:55 PM,42.8,32.0,66,30.31,9.0,SW,6.9,-,N/A,,Overcast,220,2013-01-05 20:55:00
3:15 PM,42.8,32.0,66,30.31,9.0,SW,5.8,-,N/A,,Overcast,220,2013-01-05 21:15:00
3:35 PM,42.8,32.0,66,30.31,9.0,SW,5.8,-,N/A,,Overcast,220,2013-01-05 21:35:00
3:55 PM,41.0,32.0,70,30.31,9.0,SW,5.8,-,N/A,,Overcast,220,2013-01-05 21:55:00
4:15 PM,41.0,32.0,70,30.32,9.0,SW,6.9,-,N/A,,Overcast,220,2013-01-05 22:15:00
4:35 PM,41.0,32.0,70,30.31,8.0,South,3.5,-,N/A,,Overcast,180,2013-01-05 22:35:00
4:55 PM,41.0,32.0,70,30.31,9.0,South,3.5,-,N/A,,Overcast,190,2013-01-05 22:55:00
5:15 PM,41.0,32.0,70,30.31,10.0,Calm,Calm,-,N/A,,Overcast,0,2013-01-05 23:15:00
5:35 PM,41.0,32.0,70,30.32,10.0,South,3.5,-,N/A,,Overcast,180,2013-01-05 23:35:00
5:55 PM,41.0,32.0,70,30.32,10.0,SSW,4.6,-,N/A,,Overcast,210,2013-01-05 23:55:00
6:55 PM,39.2,35.6,87,30.32,10.0,SSW,4.6,-,N/A,,Overcast,210,2013-01-06 00:55:00
7:15 PM,39.2,35.6,87,30.32,10.0,SW,4.6,-,N/A,,Overcast,220,2013-01-06 01:15:00
7:35 PM,39.2,35.6,87,30.32,10.0,SSW,3.5,-,N/A,,Overcast,210,2013-01-06 01:35:00
7:55 PM,39.2,35.6,87,30.32,8.0,SW,4.6,-,N/A,,Overcast,220,2013-01-06 01:55:00
8:15 PM,39.2,37.4,93,30.31,10.0,SW,3.5,-,N/A,,Overcast,230,2013-01-06 02:15:00
8:35 PM,39.2,37.4,93,30.30,9.0,SSW,3.5,-,N/A,,Overcast,210,2013-01-06 02:35:00
8:55 PM,39.2,37.4,93,30.30,10.0,SSW,4.6,-,N/A,,Overcast,210,2013-01-06 02:55:00
9:15 PM,39.2,35.6,87,30.30,9.0,SSW,3.5,-,N/A,,Mostly Cloudy,210,2013-01-06 03:15:00
9:35 PM,39.2,35.6,87,30.30,9.0,SW,5.8,-,N/A,,Overcast,220,2013-01-06 03:35:00
9:55 PM,39.2,37.4,93,30.30,10.0,WSW,3.5,-,N/A,,Overcast,250,2013-01-06 03:55:00
10:15 PM,39.2,37.4,93,30.31,10.0,Calm,Calm,-,N/A,,Overcast,0,2013-01-06 04:15:00
10:35 PM,39.2,37.4,93,30.30,9.0,WSW,3.5,-,N/A,,Overcast,250,2013-01-06 04:35:00
10:55 PM,39.2,37.4,93,30.30,9.0,WSW,3.5,-,N/A,,Overcast,250,2013-01-06 04:55:00
11:15 PM,39.2,37.4,93,30.30,9.0,Calm,Calm,-,N/A,,Overcast,0,2013-01-06 05:15:00
11:35 PM,39.2,37.4,93,30.30,9.0,West,3.5,-,N/A,,Overcast,270,2013-01-06 05:35:00
11:55 PM,39.2,37.4,93,30.29,9.0,Calm,Calm,-,N/A,,Overcast,0,2013-01-06 05:55:00